| time (UTC) | temp F | wind direction | speed MPH | gust MPH | rain 1hr in | rain 24hr in | rain mn in | humidity % | barometer mb |
| 20260509094515 | 52 | 174 | 0.0 | 2.0 | 0.01 | 0.03 | 0.02 | 90 | 1008.9 |
| 20260509093515 | 52 | 209 | 0.0 | 2.0 | 0.01 | 0.03 | 0.02 | 90 | 1009.0 |
| 20260509092515 | 52 | 200 | 0.0 | 3.0 | 0.01 | 0.03 | 0.02 | 90 | 1009.2 |
| 20260509091515 | 52 | 0.0 | 0.0 | 0.00 | 0.02 | 0.01 | 90 | 1009.2 | |
| 20260509090515 | 52 | 0.0 | 0.0 | 0.00 | 0.02 | 0.01 | 90 | 1009.3 | |
| 20260509085515 | 52 | 0.0 | 1.0 | 0.00 | 0.02 | 0.01 | 90 | 1009.3 | |
| 20260509084556 | 52 | 230 | 0.0 | 2.0 | 0.00 | 0.02 | 0.01 | 90 | 1009.4 |
| 20260509083535 | 52 | 234 | 0.0 | 3.0 | 0.00 | 0.02 | 0.01 | 90 | 1009.5 |
| 20260509082515 | 52 | 72 | 0.0 | 1.0 | 0.00 | 0.02 | 0.01 | 90 | 1009.5 |
| 20260509081515 | 52 | 279 | 0.0 | 1.0 | 0.00 | 0.02 | 0.01 | 90 | 1009.6 |
| 20260509080515 | 52 | 0.0 | 0.0 | 0.00 | 0.02 | 0.01 | 90 | 1009.6 | |
| 20260509075515 | 52 | 0.0 | 0.0 | 0.00 | 0.02 | 0.01 | 90 | 1009.7 | |
| 20260509074515 | 52 | 0.0 | 0.0 | 0.00 | 0.02 | 0.01 | 90 | 1009.8 | |
| 20260509073515 | 52 | 0.0 | 1.0 | 0.00 | 0.02 | 0.01 | 90 | 1009.8 | |
| 20260509072515 | 52 | 0.0 | 0.0 | 0.00 | 0.02 | 0.01 | 90 | 1009.8 | |
| 20260509071515 | 52 | 0.0 | 1.0 | 0.00 | 0.02 | 0.01 | 90 | 1009.7 | |
| 20260509070515 | 52 | 277 | 0.0 | 1.0 | 0.00 | 0.02 | 0.01 | 90 | 1009.8 |
| 20260509065535 | 52 | 0.0 | 0.0 | 0.00 | 0.02 | 0.01 | 90 | 1009.7 | |
| 20260509064515 | 52 | 277 | 0.0 | 1.0 | 0.00 | 0.02 | 0.01 | 90 | 1009.7 |
| 20260509063515 | 52 | 0.0 | 1.0 | 0.00 | 0.02 | 0.01 | 90 | 1009.8 | |
| 20260509062515 | 52 | 277 | 0.0 | 1.0 | 0.00 | 0.02 | 0.01 | 90 | 1009.9 |
| 20260509061515 | 52 | 0.0 | 1.0 | 0.00 | 0.02 | 0.01 | 90 | 1010.0 | |
| 20260509060515 | 52 | 0.0 | 1.0 | 0.00 | 0.02 | 0.01 | 90 | 1010.0 | |
| 20260509055515 | 52 | 0.0 | 0.0 | 0.00 | 0.02 | 0.01 | 90 | 1010.2 | |
| 20260509054515 | 52 | 0.0 | 0.0 | 0.00 | 0.02 | 0.01 | 90 | 1010.3 | |
| 20260509053515 | 52 | 0.0 | 0.0 | 0.01 | 0.02 | 0.01 | 90 | 1010.5 | |
| 20260509052515 | 52 | 0.0 | 0.0 | 0.01 | 0.02 | 0.01 | 90 | 1010.5 | |
| 20260509051515 | 52 | 0.0 | 0.0 | 0.01 | 0.02 | 0.01 | 90 | 1010.6 | |
| 20260509050515 | 52 | 0.0 | 0.0 | 0.01 | 0.02 | 0.01 | 90 | 1010.7 | |
| 20260509045535 | 52 | 0.0 | 0.0 | 0.01 | 0.02 | 0.01 | 90 | 1010.8 | |
| 20260509044515 | 52 | 0.0 | 0.0 | 0.01 | 0.02 | 0.01 | 89 | 1010.8 | |
| 20260509043515 | 52 | 0.0 | 0.0 | 0.00 | 0.01 | 0.00 | 89 | 1010.8 | |
| 20260509042515 | 52 | 0.0 | 0.0 | 0.00 | 0.01 | 0.00 | 89 | 1010.9 | |
| 20260509041555 | 52 | 0.0 | 0.0 | 0.00 | 0.01 | 0.00 | 89 | 1010.9 | |
| 20260509040515 | 52 | 0.0 | 0.0 | 0.00 | 0.01 | 0.00 | 89 | 1010.9 | |
| 20260509035516 | 52 | 0.0 | 0.0 | 0.00 | 0.01 | 0.01 | 89 | 1011.0 | |
| 20260509034516 | 52 | 0.0 | 0.0 | 0.00 | 0.01 | 0.01 | 89 | 1011.1 | |
| 20260509033516 | 53 | 0.0 | 0.0 | 0.00 | 0.01 | 0.01 | 89 | 1011.2 | |
| 20260509032516 | 53 | 0.0 | 0.0 | 0.00 | 0.01 | 0.01 | 89 | 1011.3 | |
| 20260509031517 | 53 | 0.0 | 0.0 | 0.00 | 0.01 | 0.01 | 89 | 1011.4 | |
| 20260509030516 | 53 | 0.0 | 0.0 | 0.00 | 0.01 | 0.01 | 89 | 1011.5 | |
| 20260509025516 | 53 | 0.0 | 0.0 | 0.00 | 0.01 | 0.01 | 89 | 1011.6 | |
| 20260509024516 | 53 | 0.0 | 0.0 | 0.00 | 0.01 | 0.01 | 89 | 1011.7 | |
| 20260509023556 | 53 | 0.0 | 0.0 | 0.00 | 0.01 | 0.01 | 88 | 1011.9 | |
| 20260509022517 | 53 | 0.0 | 0.0 | 0.00 | 0.01 | 0.01 | 88 | 1011.9 | |
| 20260509021517 | 53 | 0.0 | 0.0 | 0.00 | 0.01 | 0.01 | 88 | 1011.9 | |
| 20260509020516 | 53 | 0.0 | 0.0 | 0.00 | 0.01 | 0.01 | 88 | 1011.7 | |
| 20260509015516 | 53 | 0.0 | 0.0 | 0.00 | 0.01 | 0.01 | 88 | 1011.7 | |
| 20260509014536 | 53 | 0.0 | 0.0 | 0.01 | 0.01 | 0.01 | 88 | 1011.6 | |
| 20260509013516 | 53 | 0.0 | 1.0 | 0.01 | 0.01 | 0.01 | 87 | 1011.4 | |
| 20260509012516 | 54 | 0.0 | 1.0 | 0.01 | 0.01 | 0.01 | 87 | 1011.5 | |
| 20260509011516 | 54 | 273 | 0.0 | 1.0 | 0.01 | 0.01 | 0.01 | 85 | 1011.4 |
| 20260509010516 | 55 | 271 | 0.0 | 1.0 | 0.01 | 0.01 | 0.01 | 83 | 1011.5 |
| 20260509005536 | 55 | 0.0 | 0.0 | 0.01 | 0.01 | 0.01 | 82 | 1011.4 | |
| 20260509004516 | 55 | 291 | 1.0 | 3.0 | 0.00 | 0.00 | 0.00 | 81 | 1011.2 |
| 20260509003516 | 55 | 0.0 | 1.0 | 0.00 | 0.00 | 0.00 | 83 | 1010.9 | |
| 20260509002517 | 55 | 0.0 | 2.0 | 0.00 | 0.00 | 0.00 | 82 | 1011.0 | |
| 20260509001516 | 56 | 103 | 0.0 | 2.0 | 0.00 | 0.00 | 0.00 | 81 | 1010.7 |
| 20260509000516 | 56 | 77 | 0.0 | 1.0 | 0.00 | 0.00 | 0.00 | 79 | 1010.5 |
| 20260508235516 | 57 | 78 | 0.0 | 1.0 | 0.00 | 0.00 | 0.00 | 77 | 1010.3 |
| 20260508234516 | 58 | 72 | 1.0 | 2.0 | 0.00 | 0.00 | 0.00 | 74 | 1010.4 |
| 20260508233536 | 58 | 264 | 1.0 | 1.0 | 0.00 | 0.00 | 0.00 | 73 | 1010.1 |
| 20260508232536 | 59 | 264 | 0.0 | 1.0 | 0.00 | 0.00 | 0.00 | 71 | 1009.9 |
| 20260508231536 | 59 | 71 | 0.0 | 2.0 | 0.00 | 0.00 | 0.00 | 69 | 1009.7 |
| 20260508230536 | 60 | 0.0 | 1.0 | 0.00 | 0.00 | 0.00 | 69 | 1009.7 | |
| 20260508225517 | 60 | 87 | 0.0 | 1.0 | 0.00 | 0.00 | 0.00 | 65 | 1009.8 |
| 20260508224516 | 60 | 98 | 0.0 | 2.0 | 0.00 | 0.00 | 0.00 | 63 | 1009.9 |
| 20260508223517 | 60 | 123 | 0.0 | 2.0 | 0.00 | 0.00 | 0.00 | 63 | 1010.0 |
| 20260508222516 | 60 | 183 | 0.0 | 3.0 | 0.00 | 0.00 | 0.00 | 62 | 1010.0 |
| 20260508221516 | 60 | 195 | 1.0 | 3.0 | 0.00 | 0.00 | 0.00 | 63 | 1009.9 |
| 20260508220517 | 60 | 110 | 0.0 | 2.0 | 0.00 | 0.00 | 0.00 | 63 | 1010.1 |
| 20260508215516 | 60 | 74 | 0.0 | 2.0 | 0.00 | 0.00 | 0.00 | 61 | 1010.3 |
| 20260508214516 | 61 | 39 | 0.0 | 2.0 | 0.00 | 0.00 | 0.00 | 63 | 1010.3 |
| 20260508213515 | 60 | 0.0 | 1.0 | 0.00 | 0.00 | 0.00 | 67 | 1010.5 | |
| 20260508212516 | 60 | 0.0 | 1.0 | 0.00 | 0.00 | 0.00 | 65 | 1010.5 | |
| 20260508211536 | 60 | 277 | 0.0 | 1.0 | 0.00 | 0.00 | 0.00 | 63 | 1010.7 |
| 20260508210516 | 60 | 0.0 | 3.0 | 0.00 | 0.00 | 0.00 | 62 | 1010.8 | |
| 20260508205516 | 60 | 268 | 1.0 | 3.0 | 0.00 | 0.00 | 0.00 | 62 | 1010.9 |
| 20260508204516 | 60 | 284 | 0.0 | 2.0 | 0.00 | 0.00 | 0.00 | 63 | 1010.9 |
| 20260508203516 | 60 | 0.0 | 0.0 | 0.00 | 0.00 | 0.00 | 63 | 1010.9 | |
| 20260508202515 | 60 | 256 | 0.0 | 2.0 | 0.00 | 0.00 | 0.00 | 59 | 1011.2 |
| 20260508201516 | 60 | 267 | 0.0 | 3.0 | 0.00 | 0.00 | 0.00 | 60 | 1011.3 |
| 20260508200515 | 61 | 341 | 1.0 | 3.0 | 0.00 | 0.00 | 0.00 | 58 | 1011.6 |
| 20260508195535 | 61 | 131 | 1.0 | 3.0 | 0.00 | 0.00 | 0.00 | 60 | 1011.6 |
| 20260508194516 | 61 | 253 | 1.0 | 3.0 | 0.00 | 0.00 | 0.00 | 59 | 1011.7 |
| 20260508193516 | 61 | 211 | 2.0 | 5.0 | 0.00 | 0.00 | 0.00 | 59 | 1011.9 |
| 20260508192516 | 60 | 183 | 1.0 | 3.0 | 0.00 | 0.00 | 0.00 | 61 | 1011.9 |
| 20260508191516 | 58 | 224 | 1.0 | 4.0 | 0.00 | 0.00 | 0.00 | 64 | 1012.0 |
| 20260508190516 | 57 | 293 | 1.0 | 3.0 | 0.00 | 0.00 | 0.00 | 65 | 1012.6 |
| 20260508185516 | 57 | 259 | 1.0 | 5.0 | 0.00 | 0.00 | 0.00 | 64 | 1012.7 |
| 20260508184516 | 57 | 299 | 1.0 | 5.0 | 0.00 | 0.00 | 0.00 | 65 | 1013.0 |
| 20260508183515 | 57 | 278 | 1.0 | 6.0 | 0.00 | 0.00 | 0.00 | 64 | 1013.3 |
| 20260508182557 | 57 | 293 | 1.0 | 9.0 | 0.00 | 0.00 | 0.00 | 64 | 1013.4 |
| 20260508181516 | 57 | 269 | 2.0 | 4.0 | 0.00 | 0.00 | 0.00 | 63 | 1013.3 |
| 20260508180516 | 58 | 269 | 1.0 | 4.0 | 0.00 | 0.00 | 0.00 | 62 | 1013.3 |
| 20260508175516 | 58 | 289 | 1.0 | 3.0 | 0.00 | 0.00 | 0.00 | 62 | 1013.3 |
| 20260508174516 | 58 | 190 | 1.0 | 4.0 | 0.00 | 0.00 | 0.00 | 62 | 1013.3 |
| 20260508173515 | 58 | 265 | 1.0 | 6.0 | 0.00 | 0.00 | 0.00 | 61 | 1013.4 |
| 20260508172516 | 58 | 267 | 1.0 | 7.0 | 0.00 | 0.00 | 0.00 | 60 | 1013.4 |
| 20260508171516 | 58 | 250 | 2.0 | 6.0 | 0.00 | 0.00 | 0.00 | 61 | 1013.3 |
| 20260508170516 | 58 | 261 | 3.0 | 6.0 | 0.00 | 0.00 | 0.00 | 60 | 1013.5 |
| 20260508165515 | 58 | 273 | 1.0 | 5.0 | 0.00 | 0.00 | 0.00 | 60 | 1013.5 |
| 20260508164515 | 58 | 273 | 3.0 | 8.0 | 0.00 | 0.00 | 0.00 | 59 | 1013.4 |
| 20260508163516 | 58 | 283 | 2.0 | 8.0 | 0.00 | 0.00 | 0.00 | 58 | 1013.6 |
| 20260508162516 | 58 | 268 | 2.0 | 6.0 | 0.00 | 0.00 | 0.00 | 58 | 1013.8 |
| 20260508161515 | 59 | 207 | 4.0 | 8.0 | 0.00 | 0.00 | 0.00 | 58 | 1013.9 |
| 20260508160536 | 59 | 253 | 2.0 | 7.0 | 0.00 | 0.00 | 0.00 | 59 | 1013.9 |
| 20260508155515 | 59 | 293 | 3.0 | 6.0 | 0.00 | 0.00 | 0.00 | 58 | 1013.9 |
| 20260508154537 | 59 | 281 | 3.0 | 7.0 | 0.00 | 0.00 | 0.00 | 59 | 1013.9 |
| 20260508153516 | 58 | 267 | 2.0 | 5.0 | 0.00 | 0.00 | 0.00 | 60 | 1013.8 |
| 20260508152516 | 58 | 281 | 3.0 | 7.0 | 0.00 | 0.00 | 0.00 | 59 | 1013.9 |
| 20260508151515 | 58 | 283 | 2.0 | 7.0 | 0.00 | 0.00 | 0.00 | 59 | 1014.0 |
| 20260508150515 | 58 | 203 | 4.0 | 10.0 | 0.00 | 0.00 | 0.00 | 59 | 1014.0 |
| 20260508145536 | 58 | 243 | 2.0 | 8.0 | 0.00 | 0.00 | 0.00 | 60 | 1014.0 |
| 20260508144515 | 57 | 291 | 3.0 | 10.0 | 0.00 | 0.00 | 0.00 | 60 | 1013.9 |
| 20260508143516 | 57 | 291 | 4.0 | 10.0 | 0.00 | 0.00 | 0.00 | 61 | 1013.7 |
| 20260508142515 | 56 | 309 | 3.0 | 10.0 | 0.00 | 0.00 | 0.00 | 61 | 1013.8 |
| 20260508141516 | 56 | 285 | 3.0 | 6.0 | 0.00 | 0.00 | 0.00 | 63 | 1013.9 |
| 20260508140515 | 55 | 294 | 3.0 | 9.0 | 0.00 | 0.00 | 0.00 | 62 | 1013.8 |
| 20260508135515 | 55 | 304 | 4.0 | 10.0 | 0.00 | 0.00 | 0.00 | 63 | 1013.9 |
| 20260508134516 | 55 | 299 | 3.0 | 8.0 | 0.00 | 0.00 | 0.00 | 62 | 1014.1 |
| 20260508133516 | 54 | 299 | 4.0 | 8.0 | 0.00 | 0.00 | 0.00 | 63 | 1014.1 |
| 20260508132535 | 54 | 263 | 2.0 | 8.0 | 0.00 | 0.00 | 0.00 | 65 | 1014.1 |
| 20260508131536 | 53 | 229 | 2.0 | 6.0 | 0.00 | 0.00 | 0.00 | 66 | 1014.1 |
| 20260508130515 | 52 | 282 | 2.0 | 6.0 | 0.00 | 0.00 | 0.00 | 67 | 1014.1 |
| 20260508125516 | 50 | 252 | 1.0 | 7.0 | 0.00 | 0.00 | 0.00 | 68 | 1014.2 |
| 20260508124515 | 49 | 159 | 1.0 | 7.0 | 0.00 | 0.00 | 0.00 | 69 | 1014.3 |
| 20260508123616 | 48 | 144 | 1.0 | 4.0 | 0.00 | 0.00 | 0.00 | 71 | 1014.4 |
| 20260508122516 | 47 | 192 | 1.0 | 4.0 | 0.00 | 0.00 | 0.00 | 74 | 1014.4 |
| 20260508121515 | 46 | 101 | 0.0 | 4.0 | 0.00 | 0.00 | 0.00 | 78 | 1014.4 |
| 20260508120515 | 45 | 99 | 1.0 | 2.0 | 0.00 | 0.00 | 0.00 | 82 | 1014.5 |
| 20260508115516 | 44 | 115 | 0.0 | 1.0 | 0.00 | 0.00 | 0.00 | 82 | 1014.4 |
| 20260508114515 | 44 | 115 | 0.0 | 1.0 | 0.00 | 0.00 | 0.00 | 81 | 1014.2 |
| 20260508113556 | 44 | 0.0 | 1.0 | 0.00 | 0.00 | 0.00 | 82 | 1014.2 | |
| 20260508112515 | 45 | 79 | 0.0 | 2.0 | 0.00 | 0.00 | 0.00 | 81 | 1014.2 |
| 20260508111515 | 44 | 311 | 1.0 | 2.0 | 0.00 | 0.00 | 0.00 | 82 | 1014.1 |
| 20260508110515 | 44 | 0.0 | 0.0 | 0.00 | 0.00 | 0.00 | 82 | 1013.9 | |
| 20260508105535 | 44 | 282 | 0.0 | 1.0 | 0.00 | 0.00 | 0.00 | 83 | 1013.9 |
| 20260508104515 | 44 | 355 | 0.0 | 1.0 | 0.00 | 0.00 | 0.00 | 83 | 1013.8 |
| 20260508103515 | 44 | 355 | 0.0 | 1.0 | 0.00 | 0.00 | 0.00 | 83 | 1014.0 |
| 20260508102515 | 44 | 0.0 | 0.0 | 0.00 | 0.00 | 0.00 | 82 | 1013.9 | |
| 20260508101516 | 44 | 356 | 0.0 | 1.0 | 0.00 | 0.00 | 0.00 | 81 | 1013.9 |
| 20260508100515 | 45 | 0.0 | 1.0 | 0.00 | 0.00 | 0.00 | 81 | 1013.9 | |
| 20260508095515 | 45 | 356 | 0.0 | 1.0 | 0.00 | 0.00 | 0.00 | 81 | 1013.9 |